TimeCST,TemperatureF,Dew PointF,Humidity,Sea Level PressureIn,VisibilityMPH,Wind Direction,Wind SpeedMPH,Gust SpeedMPH,PrecipitationIn,Events,Conditions,WindDirDegrees,DateUTC
12:55 AM,38.3,28.4,68,30.43,10.0,NE,4.6,-,N/A,,Clear,40,2012-11-17 06:55:00
1:55 AM,36.9,28.9,73,30.44,10.0,North,3.5,-,N/A,,Clear,10,2012-11-17 07:55:00
2:55 AM,32.9,28.0,82,30.44,10.0,NNE,3.5,-,N/A,,Clear,30,2012-11-17 08:55:00
3:55 AM,32.0,28.9,88,30.44,10.0,Calm,Calm,-,N/A,,Clear,0,2012-11-17 09:55:00
4:55 AM,30.4,28.6,93,30.45,10.0,Calm,Calm,-,N/A,,Clear,0,2012-11-17 10:55:00
5:55 AM,29.5,27.7,93,30.46,10.0,NNE,3.5,-,N/A,,Clear,20,2012-11-17 11:55:00
6:55 AM,32.0,29.5,90,30.47,10.0,NE,5.8,-,N/A,,Clear,50,2012-11-17 12:55:00
7:55 AM,37.9,32.4,80,30.48,10.0,NE,4.6,-,N/A,,Clear,40,2012-11-17 13:55:00
8:55 AM,43.2,32.9,67,30.49,10.0,East,6.9,-,N/A,,Clear,90,2012-11-17 14:55:00
9:55 AM,46.9,33.8,60,30.50,10.0,Calm,Calm,-,N/A,,Clear,0,2012-11-17 15:55:00
10:55 AM,50.9,33.3,51,30.48,10.0,Calm,Calm,-,N/A,,Clear,0,2012-11-17 16:55:00
11:55 AM,53.6,33.6,47,30.46,8.0,Calm,Calm,-,N/A,,Clear,0,2012-11-17 17:55:00
12:55 PM,56.1,33.8,43,30.43,10.0,Calm,Calm,-,N/A,,Clear,0,2012-11-17 18:55:00
1:55 PM,57.2,33.4,41,30.41,10.0,NE,4.6,-,N/A,,Clear,50,2012-11-17 19:55:00
2:55 PM,58.1,32.2,38,30.40,10.0,ENE,5.8,-,N/A,,Clear,60,2012-11-17 20:55:00
3:55 PM,56.3,36.0,46,30.40,10.0,NE,4.6,-,N/A,,Clear,50,2012-11-17 21:55:00
4:55 PM,52.7,34.2,49,30.41,10.0,Calm,Calm,-,N/A,,Clear,0,2012-11-17 22:55:00
5:55 PM,45.9,32.7,60,30.41,10.0,Calm,Calm,-,N/A,,Clear,0,2012-11-17 23:55:00
6:55 PM,43.5,32.7,66,30.42,10.0,Calm,Calm,-,N/A,,Clear,0,2012-11-18 00:55:00
7:55 PM,40.6,32.0,71,30.43,9.0,Calm,Calm,-,N/A,,Clear,0,2012-11-18 01:55:00
8:55 PM,37.9,31.8,79,30.42,9.0,NNE,3.5,-,N/A,,Clear,30,2012-11-18 02:55:00
9:55 PM,37.0,32.0,82,30.42,5.0,NNE,3.5,-,N/A,,Haze,30,2012-11-18 03:55:00
10:08 PM,37.4,32.0,81,30.42,5.0,NE,3.5,-,N/A,,Haze,50,2012-11-18 04:08:00
10:18 PM,37.4,32.0,81,30.42,6.0,NE,3.5,-,N/A,,Haze,40,2012-11-18 04:18:00
10:51 PM,37.4,32.0,81,30.42,7.0,NE,4.6,-,N/A,,Clear,50,2012-11-18 04:51:00
10:55 PM,38.1,31.6,77,30.42,8.0,NE,4.6,-,N/A,,Clear,50,2012-11-18 04:55:00
11:55 PM,41.7,31.3,66,30.40,10.0,ENE,3.5,-,N/A,,Clear,60,2012-11-18 05:55:00